Regional Weather Roundup
Issued by NWS Cleveland, OH

Home | Current Version | Previous Version | Text Only | Print | Product List | Glossary On
Versions: 1 2 3 4 5 6 7 8 9 10 11 12 13 14 15 16 17 18 19 20 21 22 23 24 25 26 27 28 29 30 31 32 33 34 35 36 37 38 39 40 41 42 43 44 45 46 47 48 49 50
000
ASUS41 KCLE 010802
RWRCLE
OHIO REGIONAL WEATHER ROUNDUP
NATIONAL WEATHER SERVICE CLEVELAND, OH
400 AM EDT SAT AUG 01 2015

NOTE: "FAIR" INDICATES FEW OR NO CLOUDS BELOW 12,000 FEET WITH NO
SIGNIFICANT WEATHER AND/OR OBSTRUCTIONS TO VISIBILITY.

OHZ001>008-015>018-024>027-034-035-043-044-010900-
   NORTHWEST OHIO

CITY           SKY/WX    TMP DP  RH WIND       PRES   REMARKS
DEFIANCE       CLEAR     62  54  74 CALM      29.94F
FINDLAY        CLEAR     62  54  74 W6        29.93F
TOLEDO EXPRESS CLEAR     63  54  72 W9        29.92S
TOLEDO EXEC    CLEAR     65  53  65 W6        29.92F
LIMA           CLEAR     62  56  80 SW3       29.96S
$$

OHZ009>014-019>023-028>033-038-089-010900-
   NORTHEAST OHIO

CITY           SKY/WX    TMP DP  RH WIND       PRES   REMARKS
CLE-HOPKINS    PTCLDY    64  57  78 W7        29.92S
CLE-LAKEFRONT  CLEAR     74  61  63 NW14      29.87S
CUY CO. ARPT   NOT AVBL
LORAIN-ELYRIA  CLEAR     64  54  69 W6        29.91F
ASHTABULA      PTCLDY    64  57  78 CALM      29.88S
AKRON-CANTON   PTCLDY    66  57  72 W7        29.91F
WOOSTER        CLEAR     60  56  86 W5        29.93F
MANSFIELD      CLEAR     64  56  75 W6        29.94F
YOUNGSTOWN     PTCLDY    64  58  80 W7        29.89F
$$

OHZ042-051>053-060>062-070>072-077>081-010900-
  SOUTHWEST OHIO

CITY           SKY/WX    TMP DP  RH WIND       PRES   REMARKS
CINC-COVINGTON CLEAR     67  60  78 W3        29.99F
CINC-LUNKEN    CLEAR     66  62  87 CALM      29.98F
HAMILTON       CLEAR     62  60  93 CALM      29.99F
DAYTON         CLEAR     64  59  83 W6        29.99S
WRIGHT-PAT AFB CLEAR     64  59  86 W3        29.97S
DAYTON GENERAL CLEAR     68  57  68 NW5       29.98S
WILMINGTON     CLEAR     68  58  70 NW6       29.98S
$$

OHZ036-037-039>041-045>050-054>059-063>069-073>076-082>088-010900-
  CENTRAL AND SOUTHEAST OHIO

CITY           SKY/WX    TMP DP  RH WIND       PRES   REMARKS
COLUMBUS       CLEAR     67  62  84 CALM      29.94S
OSU AIRPORT    PTCLDY    66  59  78 NW7       29.95S
BOLTON FIELD   NOT AVBL
RICKENBACK AFB CLEAR     64  61  91 CALM      29.94F
NEWARK         CLEAR     67  62  84 NW6       29.93F
MARION         CLEAR     65  57  75 W5        29.95F
LANCASTER      CLEAR     61  59  93 CALM      29.95S
ZANESVILLE     CLEAR     67  61  81 W3        29.93S
NEW PHILLY     CLEAR     62  60  93 CALM      29.93S
$$



USA.gov is the U.S. government's official web portal to all federal, state and local government web resources and services.